Tracking 30703 objects as of 13-Jun-2025
HD Live streaming from Space Station
objects crossing your sky now

FENGYUN 1C DEB

Track FENGYUN 1C DEB now!
10-day predictions


NORAD ID: 30454
Int'l Code: 1999-025AFR
Perigee: 727.0 km
Apogee: 987.0 km
Inclination: 98.1 °
Period: 101.9 minutes
Semi major axis: 7227 km
RCS: 0.027 m2 (small)
Launch date: May 10, 1999
Source: People's Republic of China (PRC)
Launch site: Taiyaun Space Center, China (TSC)

Note: This is SATELLITE DEBRIS
Your satellite tracking list
Your tracking list is empty




NASA's NSSDC Master Catalog

Two Line Element Set (TLE):
1 30454U 99025AFR 25163.93290451  .00004813  00000-0  22390-2 0  9995
2 30454  98.1205 150.6015 0179887   5.7026  21.8849 14.12789236933775
Source of the keplerian elements: AFSPC